Wind_Speed
18 15 13 13 13 14 14 13 13 13 12 11 10 10 9 8 8 8 9 10 10 10 11 11 12 13 14 14 15 15 15 15 14 13 12 12 12 12 12 12 11 11 12 12 12 12 12 12 11 12 12 12 12 13 13 13 13 15 15 15 15 14 13
16 14 13 13 13 15 15 15 15 14 11 10 9 8 8 8 8 8 9 10 10 10 11 12 13 14 15 15 15 16 16 15 15 14 13 12 12 12 12 12 12 11 12 12 12 13 13 13 13 12 12 12 12 13 13 14 14 15 15 15 15 14 14
15 15 14 13 14 15 16 17 16 14 11 9 8 8 8 7 7 8 9 10 10 11 11 12 13 14 15 16 16 16 16 16 15 15 14 13 13 12 12 12 12 12 12 13 13 14 14 14 14 13 13 13 13 13 13 14 14 15 15 15 15 15 15
17 17 16 16 15 16 18 18 17 16 13 11 10 10 9 8 8 7 8 8 9 10 11 12 13 15 15 15 16 16 16 16 16 15 14 14 14 14 14 13 13 13 13 14 14 14 15 15 15 15 14 14 14 14 13 14 14 15 15 15 15 15 16
18 18 18 18 17 18 19 20 19 18 16 14 14 13 12 10 9 7 7 8 9 10 11 12 13 14 15 15 16 16 16 16 16 16 16 16 16 16 16 15 15 15 15 15 15 15 16 16 16 16 15 15 15 14 14 14 15 15 16 16 16 16 16
18 18 18 18 18 18 19 19 19 18 18 17 16 15 13 12 9 7 7 8 9 10 11 12 13 14 16 16 17 17 17 17 17 18 18 18 18 18 17 17 16 16 16 16 16 16 17 17 17 17 16 16 15 14 14 15 16 16 16 16 16 16 17
17 18 19 18 18 18 18 18 18 18 18 18 18 17 15 13 11 9 8 9 9 10 11 12 13 14 15 16 17 18 18 18 18 19 19 19 19 19 18 17 17 17 17 17 17 17 17 18 17 17 17 15 14 14 15 16 16 17 17 17 17 17 17
17 18 18 18 18 17 17 18 18 17 17 17 17 17 15 13 12 12 11 10 10 10 11 12 13 14 14 15 16 16 17 17 18 18 18 18 18 18 17 17 17 17 17 17 17 17 18 18 18 17 16 15 15 15 16 16 16 17 17 17 17 18 18
17 18 18 19 19 19 19 19 18 17 16 16 16 16 15 14 13 13 12 11 10 11 12 13 14 14 15 15 15 15 15 16 16 17 17 16 16 16 16 16 17 17 17 17 18 18 19 19 19 17 16 15 16 16 16 16 16 16 17 17 18 18 18
18 19 19 20 20 20 20 20 19 18 16 16 16 15 14 13 13 13 13 13 12 11 12 14 15 16 16 15 15 15 15 15 15 15 15 15 15 15 16 16 17 17 17 17 18 18 19 19 19 17 16 16 16 16 16 16 16 16 17 17 18 18 18
19 19 19 19 19 20 20 20 20 18 17 17 16 14 13 12 13 13 13 14 13 13 13 15 17 18 18 17 15 15 15 15 15 15 15 15 15 15 16 16 17 17 17 17 18 19 19 19 18 17 17 16 16 17 16 16 16 16 17 17 17 16 17
18 18 18 18 18 19 19 20 20 19 18 18 17 16 15 15 15 14 13 14 15 15 15 15 17 18 19 19 18 17 16 16 16 16 15 15 15 16 16 16 16 16 16 16 17 18 18 18 17 16 17 17 17 17 17 16 16 16 17 16 15 15 16
18 18 18 18 18 18 18 19 20 20 20 20 20 19 19 18 17 16 15 15 15 16 16 16 17 18 19 20 19 19 18 18 17 16 16 16 16 16 15 15 15 14 15 15 16 18 18 17 16 17 18 18 18 18 18 18 18 17 16 15 14 15 16
20 19 18 18 19 18 18 19 19 20 20 21 21 21 20 19 18 18 17 15 15 16 17 17 18 19 20 20 20 20 20 19 18 17 17 17 16 15 14 13 13 13 14 14 15 17 17 17 16 17 18 19 18 18 18 18 19 18 17 16 16 17 17
19 17 17 18 19 19 19 19 18 17 17 18 20 20 20 19 19 18 15 14 14 15 17 19 19 20 21 21 21 21 20 19 18 17 18 17 16 14 13 12 12 12 13 14 15 15 16 16 16 17 18 18 18 18 17 17 17 17 18 18 18 18 17
17 17 17 18 19 19 18 18 17 17 17 17 19 20 21 21 20 18 15 15 18 18 18 20 21 21 22 22 22 21 21 20 19 18 18 17 16 15 13 12 11 12 13 14 14 14 14 14 15 16 17 18 18 18 17 16 17 17 18 18 17 17 17
20 21 21 20 20 19 18 18 18 18 18 18 19 20 21 21 20 18 16 18 20 21 21 21 22 23 23 22 22 21 20 20 19 19 18 18 16 15 13 12 12 13 14 14 14 14 13 14 14 15 16 17 18 18 18 18 18 18 18 18 17 17 17
22 22 23 22 21 21 20 19 19 18 17 18 20 20 20 19 18 17 16 18 19 21 22 22 23 23 22 21 20 19 18 18 18 18 18 17 17 15 14 13 13 13 14 15 15 14 14 15 16 16 17 18 19 20 20 20 19 19 19 19 19 18 19
22 21 20 20 19 20 20 18 17 17 17 18 20 20 19 18 18 18 18 19 19 19 22 23 23 23 22 20 18 18 17 17 17 17 17 17 17 16 15 14 14 14 15 15 15 15 16 16 17 17 18 19 20 21 21 21 20 19 19 19 20 20 20
22 22 18 16 16 16 16 16 17 17 18 18 18 19 19 19 19 19 19 18 18 18 21 23 23 23 21 20 18 18 18 18 17 17 16 16 16 16 16 15 15 15 15 15 15 15 16 17 17 17 16 17 17 19 20 21 20 20 20 20 20 20 21
23 23 18 15 14 14 15 17 17 16 15 16 17 17 18 19 21 22 20 18 16 17 20 21 21 22 22 21 20 19 18 17 17 17 16 16 15 15 15 15 15 15 14 14 14 15 16 17 17 17 17 16 16 17 18 19 20 21 21 21 21 22 23
20 19 17 15 14 14 15 16 15 14 13 15 16 16 15 16 19 21 20 17 15 16 17 17 17 18 19 19 19 18 18 17 17 17 16 15 14 14 15 15 15 15 14 13 13 14 15 17 18 19 19 19 19 19 20 20 20 20 20 21 21 21 22
15 15 15 16 15 13 13 14 13 13 13 13 12 11 11 11 12 15 15 13 12 12 11 10 11 13 14 15 16 17 17 18 17 17 17 16 15 16 16 16 16 16 15 15 15 15 16 17 19 20 21 22 22 22 22 22 22 21 21 21 22 22 23
16 15 14 15 14 13 13 13 12 12 11 11 9 8 8 9 9 9 10 9 9 9 8 8 9 9 10 11 12 13 15 16 16 16 16 17 17 17 17 17 18 18 18 18 18 18 19 19 20 21 22 23 24 24 24 24 24 24 23 23 24 25 26
15 15 14 15 15 14 14 14 13 13 13 12 11 10 9 10 11 11 11 10 10 11 12 11 11 10 10 11 11 12 13 14 14 15 16 17 17 17 17 18 18 19 19 19 19 20 21 22 23 23 24 24 25 25 26 26 27 27 28 28 29 30 31
16 16 16 17 18 17 17 17 17 16 16 15 15 15 15 16 17 18 16 14 14 15 16 15 13 13 13 13 13 13 14 14 15 15 16 17 18 18 18 19 20 21 21 21 21 22 22 23 24 25 25 25 26 26 27 28 29 30 31 32 33 34 34
20 20 20 20 20 21 21 22 21 20 20 19 19 19 19 19 20 20 18 15 15 17 18 18 18 17 16 16 16 16 16 17 18 18 19 20 20 21 22 23 24 23 23 23 24 24 25 26 26 27 27 27 28 28 29 30 31 32 33 33 34 36 37
24 24 24 23 23 24 24 25 24 24 23 22 21 21 22 22 23 22 21 18 18 19 21 22 22 22 21 20 19 19 20 21 22 23 24 24 24 25 26 27 26 26 26 26 26 27 27 28 29 30 30 31 31 32 33 33 34 34 35 36 37 38 39
27 27 26 26 27 27 27 27 27 27 26 24 23 23 23 23 23 23 22 23 23 25 26 27 26 26 25 25 24 23 24 25 27 28 29 29 29 29 30 30 30 30 30 29 29 30 30 31 32 32 33 34 34 35 36 36 37 37 38 38 39 39 40
30 30 30 30 30 30 30 29 29 29 29 27 25 25 23 22 25 25 24 26 27 28 28 28 28 29 28 28 28 28 29 31 31 31 32 32 33 33 33 33 33 32 32 31 32 33 33 34 34 35 36 37 37 38 38 39 39 39 39 39 39 39 39
32 33 33 33 33 32 31 31 31 31 31 29 28 28 26 27 30 30 27 26 26 25 25 27 30 31 30 29 30 31 33 34 34 34 35 35 36 36 36 36 35 35 35 35 35 36 36 37 37 38 38 39 39 40 40 40 40 40 39 39 39 39 40
34 34 34 33 33 32 32 33 33 33 33 32 31 31 30 31 34 33 30 27 26 26 28 32 34 35 35 35 35 36 36 37 37 38 39 39 38 37 37 37 38 38 38 38 38 39 39 39 40 40 40 40 40 40 41 41 41 41 40 40 41 41 42
34 34 34 34 34 34 34 34 34 34 35 35 34 34 35 35 36 36 33 31 32 33 35 37 37 37 38 39 40 41 42 43 44 44 44 44 41 38 38 39 40 41 41 40 40 40 41 41 41 41 40 40 40 40 41 41 41 41 42 42 43 44 44
34 35 35 35 35 36 36 36 37 37 37 37 37 37 37 37 39 40 39 38 39 39 40 40 41 42 42 43 43 44 45 47 48 48 47 46 44 42 42 42 41 41 42 41 40 40 40 41 41 40 40 40 40 41 41 42 43 43 44 45 46 47 47
40 41 41 41 40 40 40 40 40 40 40 41 40 40 40 40 41 42 42 43 45 47 47 47 48 49 48 48 48 49 48 48 48 48 47 46 45 43 43 43 42 42 41 41 41 41 42 42 42 42 42 42 42 43 44 45 46 47 47 48 49 50 50
43 43 44 45 46 46 46 46 46 45 45 45 45 44 43 43 43 43 43 44 46 48 49 49 49 49 48 47 47 47 47 47 47 47 47 46 45 44 44 43 43 42 42 42 43 44 44 44 44 44 44 45 45 46 47 48 48 49 50 51 52 52 53
45 44 44 45 46 47 48 49 48 48 47 47 46 45 45 44 44 44 45 45 46 47 48 48 48 49 48 48 47 47 48 48 48 47 47 47 47 47 46 45 45 45 45 46 46 46 46 46 46 47 48 49 49 49 50 50 51 52 53 54 55 55 55
Wind_Direction
198 192 185 186 185 187 190 187 184 181 183 189 193 198 200 203 207 213 221 224 225 232 238 241 243 245 245 244 243 242 240 240 238 236 235 235 238 242 245 248 250 251 253 257 259 260 258 254 251 248 246 245 246 248 250 249 249 252 256 258 259 259 258
189 192 187 190 190 190 191 189 185 183 183 189 196 202 207 210 210 214 221 224 225 229 233 236 238 241 243 243 243 242 241 240 240 238 236 236 237 240 243 247 252 255 258 260 261 262 261 257 252 248 246 245 246 247 249 250 252 254 257 258 257 257 258
192 191 187 192 196 196 196 194 193 192 194 205 215 218 222 223 220 218 220 222 224 226 230 233 236 238 239 240 241 242 242 241 240 239 238 238 240 241 243 246 251 254 257 259 260 261 262 259 255 250 247 244 243 244 246 248 251 253 254 253 252 253 257
200 195 191 194 197 199 200 200 201 204 212 228 242 243 240 239 238 235 231 227 226 228 231 234 238 238 237 237 239 240 241 240 239 239 239 241 244 246 246 247 248 250 252 255 257 259 260 259 256 253 250 246 244 243 244 246 248 249 249 248 249 252 256
201 199 196 195 197 200 202 205 209 214 224 238 249 249 245 243 243 244 243 238 233 233 236 240 242 242 240 238 239 240 240 242 242 242 243 246 248 248 248 247 247 247 249 252 254 255 256 255 253 252 251 249 247 245 245 246 247 246 247 249 252 255 256
200 200 199 198 199 201 205 210 215 221 230 239 246 246 244 245 249 252 250 244 238 234 236 243 247 247 245 242 241 241 242 243 245 247 249 249 249 249 249 250 249 250 250 251 251 252 253 253 252 253 253 252 252 250 248 248 248 248 250 253 255 257 259
204 203 204 204 206 209 212 215 219 224 230 235 237 237 238 244 255 261 256 248 244 239 235 239 247 250 249 246 243 243 243 243 245 247 249 250 250 251 251 251 250 250 249 248 249 250 251 252 254 254 255 256 257 255 252 250 250 251 252 254 255 256 258
214 212 212 215 220 223 226 227 228 231 234 234 228 227 233 245 259 264 260 250 246 243 237 236 243 248 249 248 246 245 246 247 248 249 251 252 252 252 251 250 249 247 246 246 246 248 249 251 252 253 255 258 257 254 251 250 250 251 251 252 253 255 256
218 218 219 224 228 231 234 234 236 238 239 234 227 227 237 251 262 263 258 250 245 246 243 237 239 244 248 249 250 252 253 253 254 254 254 253 253 252 250 247 246 245 244 244 245 246 248 250 251 253 254 254 254 252 251 249 248 248 248 249 252 253 254
222 222 223 226 230 233 234 235 237 239 237 233 232 236 245 255 262 263 259 252 247 247 246 241 239 241 246 250 254 257 258 257 258 259 257 256 254 251 246 243 241 241 242 243 244 246 248 249 250 251 251 251 252 252 250 248 246 245 246 248 250 253 255
227 226 225 227 230 231 231 234 236 235 233 233 236 242 251 259 264 265 262 257 251 248 248 245 240 239 242 249 255 259 260 260 261 262 261 257 254 250 246 244 242 241 242 243 244 246 247 248 249 249 249 250 251 251 251 252 251 251 251 252 254 257 258
236 234 232 232 234 235 235 236 236 235 235 236 240 248 256 263 266 267 264 259 254 250 249 249 245 241 241 245 252 257 260 261 262 262 262 259 254 250 247 245 244 242 241 240 241 243 244 245 246 248 249 251 252 254 255 256 257 257 256 258 259 262 262
244 244 244 243 243 244 245 245 243 242 241 242 247 253 260 266 268 269 266 261 255 251 250 251 249 247 245 245 249 253 257 261 263 263 263 260 254 249 246 244 243 239 236 234 237 239 241 240 241 242 244 246 249 252 254 255 255 255 257 260 262 262 262
244 248 252 254 255 256 258 258 256 253 251 252 255 258 262 267 269 270 270 267 260 253 250 250 250 248 246 246 248 251 256 260 263 263 261 258 253 248 246 245 243 240 236 234 234 236 237 238 239 241 242 244 246 248 250 252 253 254 257 259 258 256 256
245 251 255 259 260 262 266 269 271 272 273 273 273 270 268 266 267 269 274 279 278 267 254 249 249 247 245 246 247 250 254 256 257 256 254 252 249 246 245 242 238 235 235 235 235 236 239 241 244 246 248 249 249 248 249 250 251 253 255 255 254 253 252
246 248 250 252 254 259 265 271 277 281 284 287 287 283 278 272 268 267 273 287 292 287 269 252 247 247 244 244 246 248 251 253 251 248 247 247 247 247 244 237 228 222 223 226 229 233 240 246 250 253 254 254 254 252 251 250 250 250 250 250 251 253 256
238 241 242 244 248 253 258 264 271 275 278 282 283 283 280 274 266 259 267 283 290 290 282 262 250 249 248 246 248 250 251 252 251 250 249 248 248 247 244 236 224 217 216 219 222 225 229 236 243 249 251 253 255 256 254 253 252 251 252 252 252 253 255
235 238 241 243 246 250 255 262 266 269 273 277 280 280 278 272 261 255 267 282 285 288 287 274 258 253 251 249 249 249 249 252 254 255 255 254 252 248 243 234 225 220 220 222 224 226 228 231 235 241 245 249 253 255 255 254 254 255 257 259 259 257 256
239 239 243 247 249 252 256 256 255 260 269 276 277 276 274 267 260 260 271 278 278 281 285 280 268 259 254 249 246 244 245 248 251 253 256 257 256 254 248 239 232 230 231 233 235 236 236 237 238 241 244 247 249 251 252 253 254 255 257 261 264 264 263
245 242 244 249 248 249 255 256 257 266 275 277 276 276 276 268 258 260 270 276 277 281 284 281 273 264 256 247 240 238 240 242 245 248 251 255 259 260 256 249 243 241 242 245 248 250 249 249 248 248 248 249 249 249 250 251 252 253 254 256 259 262 264
246 244 243 246 247 251 258 262 265 273 279 280 280 282 282 273 259 257 267 278 284 286 285 279 272 265 259 250 241 237 237 239 242 245 249 253 256 257 256 253 251 251 252 254 256 258 260 262 262 260 258 256 256 256 255 255 254 253 253 252 254 257 261
241 240 239 244 250 255 257 256 261 272 279 280 282 284 286 280 265 259 266 277 281 279 275 270 265 261 257 252 246 242 240 239 241 245 246 243 240 243 248 252 255 256 256 257 259 261 262 264 265 266 265 264 264 265 265 264 261 258 256 254 253 255 258
236 235 237 244 247 249 251 253 262 275 279 279 282 284 290 291 272 258 258 261 263 263 259 255 255 254 254 252 249 246 243 241 242 245 244 239 235 239 246 250 254 257 261 266 269 269 267 266 267 268 269 269 270 270 270 268 265 262 259 257 257 259 262
237 234 235 239 239 244 251 254 262 272 273 274 280 280 284 285 272 254 243 237 238 243 245 248 252 254 258 259 257 252 247 245 244 245 245 246 246 248 252 255 258 263 268 273 276 275 273 273 273 273 272 272 274 274 272 269 265 262 261 262 263 265 268
233 232 231 233 239 247 250 250 256 264 264 266 271 270 266 266 266 263 255 245 241 245 249 251 253 257 261 261 261 258 254 250 248 247 248 251 253 254 257 261 266 270 274 277 278 277 275 275 276 275 274 273 273 273 272 270 267 265 265 267 269 270 271
228 229 233 239 246 250 249 251 258 261 258 258 262 264 265 266 266 265 259 251 248 251 253 252 254 260 262 259 258 257 256 255 253 252 254 256 256 257 259 262 267 273 278 280 279 278 277 277 276 275 274 273 271 270 270 269 268 268 269 271 273 275 277
231 231 236 241 245 246 248 253 257 259 258 258 261 264 267 269 268 266 261 254 252 254 255 257 261 265 264 260 258 257 257 256 256 256 258 259 259 259 261 264 269 273 276 277 277 277 278 277 277 275 274 273 272 271 270 269 269 269 270 272 274 276 279
236 237 240 243 247 250 252 253 255 257 259 262 265 268 269 270 270 269 266 262 262 265 265 265 267 269 268 263 259 257 258 258 259 261 260 259 259 260 261 263 266 268 270 271 272 273 274 275 275 274 274 274 273 273 272 272 272 272 273 274 275 277 278
240 242 245 248 253 256 258 257 257 257 259 261 265 271 274 272 269 266 263 264 268 271 272 271 270 271 270 266 261 258 260 262 264 264 263 262 261 260 261 261 262 264 264 265 267 269 271 272 272 273 274 274 274 274 274 274 274 275 275 276 277 278 279
244 245 248 251 253 254 255 256 257 259 259 259 264 270 271 265 260 258 260 265 267 269 270 269 268 267 265 263 260 259 261 264 264 263 264 265 264 263 263 263 263 262 262 262 265 268 269 270 271 272 273 274 275 276 277 277 277 277 277 278 279 280 281
247 249 251 252 253 253 254 255 256 257 256 255 260 266 265 260 259 260 263 263 261 261 262 262 262 262 262 261 260 260 261 262 261 262 265 267 267 266 265 264 263 263 263 266 269 270 271 271 272 273 274 275 277 278 278 277 277 276 277 277 278 278 279
254 256 257 258 259 259 259 259 258 256 254 253 257 263 264 260 259 260 259 253 246 244 247 253 258 261 261 261 261 261 262 262 263 266 268 268 267 265 263 262 262 263 266 269 272 273 273 273 273 274 274 275 276 276 276 275 275 275 275 275 275 275 276
261 262 263 264 263 262 261 261 260 259 257 258 262 266 266 263 260 258 254 245 238 237 241 249 256 259 260 262 263 263 265 266 268 270 271 270 268 264 261 261 263 265 267 269 271 272 273 274 273 273 273 273 273 273 273 273 272 272 273 273 274 275 275
266 266 266 266 265 264 263 262 261 260 260 263 266 268 268 267 265 262 257 250 244 243 246 252 258 261 264 266 268 269 270 270 270 270 270 270 268 265 263 263 264 265 267 269 270 271 272 272 272 272 272 272 272 271 271 270 270 271 272 273 274 275 276
267 266 265 265 263 263 262 261 260 261 262 264 267 268 268 268 266 264 261 258 255 253 254 257 261 264 267 269 271 273 274 273 272 271 270 269 267 265 264 263 264 264 266 266 267 268 269 269 270 270 270 269 268 268 268 269 270 271 273 275 276 278 279
265 263 262 261 260 260 259 259 260 261 263 265 266 267 267 266 264 262 261 260 259 259 261 263 265 266 267 269 270 271 272 273 273 271 269 266 264 263 263 263 264 265 265 265 265 266 266 267 267 267 266 266 266 267 268 270 272 273 275 276 278 279 281
261 259 258 258 259 259 259 259 260 262 263 264 265 265 265 264 262 261 260 260 259 259 260 262 263 264 265 266 267 267 268 270 270 268 266 264 263 263 264 264 265 265 265 265 266 266 267 266 266 265 265 265 266 268 270 272 273 275 276 277 278 279 281
Height
5768 5769 5770 5771 5772 5774 5775 5776 5777 5778 5779 5780 5780 5781 5781 5782 5783 5783 5783 5784 5785 5785 5785 5786 5786 5787 5787 5787 5787 5787 5788 5788 5789 5790 5791 5791 5791 5791 5791 5792 5793 5794 5795 5795 5796 5796 5796 5796 5796 5795 5795 5795 5795 5795 5795 5795 5795 5795 5795 5795 5795 5795 5795
5766 5768 5769 5769 5771 5772 5773 5774 5776 5777 5777 5778 5779 5779 5780 5780 5781 5781 5782 5782 5783 5784 5784 5785 5785 5785 5786 5786 5786 5786 5786 5787 5787 5788 5789 5790 5790 5790 5791 5791 5791 5792 5793 5794 5794 5794 5794 5794 5794 5794 5794 5794 5794 5794 5794 5794 5794 5794 5793 5794 5794 5794 5793
5764 5766 5767 5768 5769 5770 5771 5772 5773 5775 5775 5776 5777 5778 5778 5779 5779 5780 5780 5781 5781 5782 5782 5783 5783 5784 5784 5784 5784 5785 5785 5786 5786 5787 5787 5788 5789 5789 5790 5790 5790 5791 5791 5792 5793 5793 5793 5793 5793 5793 5793 5793 5793 5792 5792 5792 5792 5792 5792 5792 5792 5792 5792
5763 5764 5765 5766 5767 5768 5769 5770 5771 5772 5773 5774 5775 5776 5777 5777 5778 5778 5779 5779 5779 5780 5780 5781 5782 5782 5782 5783 5783 5783 5783 5784 5785 5785 5786 5786 5787 5788 5788 5789 5789 5789 5790 5790 5791 5792 5792 5792 5792 5792 5792 5792 5791 5791 5791 5791 5791 5791 5791 5790 5790 5790 5790
5760 5762 5763 5764 5765 5766 5767 5768 5769 5770 5771 5772 5773 5774 5775 5776 5777 5777 5777 5777 5777 5778 5778 5779 5779 5780 5781 5781 5781 5782 5782 5783 5783 5783 5784 5785 5786 5786 5787 5787 5787 5788 5788 5788 5789 5790 5790 5791 5791 5790 5790 5790 5790 5790 5790 5789 5789 5789 5789 5788 5788 5788 5788
5759 5760 5762 5762 5763 5764 5765 5767 5768 5769 5770 5771 5771 5772 5772 5773 5775 5775 5776 5776 5776 5776 5777 5777 5778 5778 5779 5780 5780 5781 5781 5782 5782 5783 5783 5784 5785 5785 5785 5785 5786 5786 5786 5787 5787 5788 5788 5788 5789 5789 5788 5788 5788 5788 5788 5787 5787 5787 5787 5787 5786 5786 5786
5758 5760 5761 5762 5762 5763 5764 5765 5767 5768 5769 5769 5770 5770 5771 5771 5772 5773 5774 5775 5775 5775 5776 5776 5777 5777 5778 5779 5779 5780 5781 5781 5782 5782 5783 5783 5784 5784 5784 5784 5784 5785 5785 5785 5785 5786 5786 5786 5787 5787 5787 5787 5787 5786 5786 5785 5785 5785 5785 5785 5784 5784 5784
5758 5759 5760 5761 5762 5763 5763 5764 5765 5766 5767 5767 5768 5768 5769 5770 5770 5771 5772 5773 5774 5774 5775 5775 5776 5776 5777 5778 5779 5780 5780 5781 5781 5782 5782 5782 5783 5783 5783 5783 5783 5783 5783 5783 5783 5784 5784 5784 5785 5785 5785 5785 5785 5784 5784 5784 5783 5783 5783 5783 5783 5782 5782
5757 5758 5759 5760 5760 5761 5761 5762 5763 5764 5764 5765 5766 5766 5767 5768 5769 5769 5770 5771 5772 5773 5774 5774 5775 5776 5776 5777 5778 5779 5779 5780 5780 5780 5781 5781 5781 5781 5781 5781 5781 5781 5782 5782 5782 5782 5782 5782 5783 5784 5784 5783 5783 5782 5782 5782 5782 5782 5782 5781 5781 5781 5781
5755 5756 5757 5757 5758 5759 5759 5760 5760 5761 5762 5763 5764 5765 5766 5767 5767 5768 5769 5770 5770 5771 5772 5773 5774 5774 5775 5776 5777 5777 5778 5778 5779 5779 5779 5779 5779 5779 5780 5780 5780 5780 5780 5780 5780 5780 5780 5780 5781 5782 5782 5781 5781 5781 5780 5780 5780 5780 5780 5780 5780 5779 5779
5753 5754 5755 5756 5756 5757 5757 5758 5759 5760 5760 5761 5762 5763 5764 5765 5766 5767 5768 5768 5769 5770 5771 5772 5772 5773 5773 5774 5775 5776 5776 5777 5777 5777 5778 5778 5778 5778 5778 5778 5778 5778 5778 5778 5778 5778 5778 5778 5779 5779 5780 5780 5779 5779 5779 5779 5779 5779 5778 5778 5778 5778 5778
5751 5752 5753 5754 5755 5756 5756 5757 5757 5758 5759 5759 5760 5761 5762 5763 5764 5765 5766 5767 5768 5769 5770 5770 5771 5771 5771 5772 5773 5773 5774 5774 5775 5775 5776 5776 5776 5776 5776 5776 5777 5777 5776 5776 5776 5776 5776 5777 5777 5778 5778 5778 5778 5778 5778 5778 5777 5777 5777 5777 5777 5777 5776
5749 5750 5751 5752 5754 5755 5755 5756 5756 5757 5757 5758 5759 5759 5760 5761 5762 5763 5764 5765 5766 5767 5768 5768 5769 5769 5769 5770 5770 5771 5771 5772 5772 5773 5773 5774 5774 5774 5774 5774 5774 5775 5775 5775 5774 5774 5775 5775 5776 5776 5776 5776 5776 5776 5776 5776 5776 5775 5775 5775 5775 5775 5775
5747 5748 5750 5751 5753 5753 5754 5755 5755 5756 5756 5757 5757 5758 5758 5759 5760 5761 5762 5763 5764 5765 5766 5766 5766 5766 5766 5767 5767 5768 5768 5769 5770 5770 5771 5771 5772 5772 5772 5772 5772 5772 5772 5773 5773 5773 5773 5774 5774 5774 5774 5774 5774 5774 5774 5773 5773 5773 5773 5773 5773 5773 5773
5746 5748 5749 5751 5751 5752 5753 5753 5753 5754 5755 5755 5756 5756 5756 5757 5758 5759 5760 5761 5762 5763 5763 5763 5763 5763 5763 5764 5764 5765 5766 5766 5767 5767 5768 5769 5769 5770 5770 5770 5770 5770 5770 5771 5771 5771 5771 5771 5771 5771 5771 5772 5772 5772 5772 5771 5771 5771 5771 5771 5771 5771 5770
5745 5747 5748 5748 5748 5749 5751 5751 5752 5752 5753 5753 5753 5754 5754 5755 5756 5757 5758 5759 5760 5760 5761 5760 5760 5760 5761 5761 5762 5763 5763 5764 5764 5765 5765 5766 5767 5767 5768 5768 5768 5769 5769 5769 5769 5770 5770 5770 5769 5769 5770 5769 5769 5769 5769 5769 5769 5769 5769 5769 5769 5769 5768
5743 5744 5745 5745 5746 5746 5748 5749 5750 5750 5751 5751 5751 5751 5751 5752 5753 5754 5756 5756 5757 5757 5758 5758 5758 5758 5758 5759 5760 5760 5761 5761 5762 5762 5763 5764 5764 5765 5765 5766 5766 5766 5767 5767 5767 5768 5768 5768 5768 5768 5768 5768 5768 5768 5767 5767 5767 5767 5766 5766 5767 5767 5767
5740 5741 5742 5743 5743 5744 5746 5747 5748 5748 5748 5748 5748 5748 5748 5749 5750 5751 5752 5753 5753 5754 5754 5755 5755 5755 5756 5757 5758 5758 5759 5759 5760 5760 5761 5761 5762 5762 5763 5763 5764 5764 5764 5765 5765 5765 5766 5766 5766 5766 5767 5767 5766 5766 5766 5765 5765 5765 5764 5764 5764 5764 5764
5738 5739 5740 5741 5742 5743 5744 5745 5746 5746 5746 5746 5745 5745 5745 5746 5747 5748 5749 5749 5750 5751 5751 5752 5752 5753 5754 5755 5755 5756 5757 5757 5757 5758 5758 5759 5759 5759 5760 5760 5761 5761 5762 5762 5762 5763 5763 5763 5763 5764 5764 5764 5764 5763 5763 5763 5763 5763 5762 5762 5761 5761 5761
5735 5736 5738 5739 5740 5741 5742 5742 5743 5744 5744 5744 5743 5743 5743 5743 5743 5744 5745 5746 5747 5748 5748 5749 5749 5750 5751 5752 5753 5753 5754 5755 5755 5755 5756 5756 5756 5757 5757 5758 5758 5758 5759 5759 5759 5759 5760 5760 5760 5760 5761 5760 5760 5760 5760 5760 5760 5760 5760 5760 5759 5759 5759
5733 5734 5736 5737 5738 5738 5739 5740 5740 5741 5741 5741 5741 5741 5740 5740 5740 5741 5742 5743 5743 5745 5746 5747 5747 5748 5748 5749 5750 5751 5751 5752 5752 5752 5753 5753 5754 5754 5755 5755 5755 5755 5756 5756 5756 5756 5756 5756 5756 5757 5757 5757 5757 5757 5757 5757 5757 5756 5756 5756 5756 5756 5756
5731 5732 5733 5734 5735 5736 5737 5737 5738 5739 5739 5739 5739 5738 5738 5737 5737 5738 5739 5740 5741 5742 5743 5744 5745 5745 5746 5746 5747 5748 5749 5750 5750 5750 5750 5750 5751 5752 5752 5752 5752 5752 5753 5753 5753 5753 5753 5753 5753 5753 5753 5754 5754 5754 5754 5754 5753 5753 5753 5753 5752 5752 5752
5729 5730 5731 5731 5732 5733 5734 5735 5736 5736 5736 5737 5736 5736 5735 5735 5735 5736 5737 5738 5738 5739 5740 5741 5742 5743 5744 5744 5745 5746 5746 5747 5747 5748 5748 5748 5748 5749 5749 5750 5750 5750 5750 5750 5750 5750 5750 5750 5750 5750 5750 5750 5750 5750 5751 5750 5750 5750 5749 5749 5749 5749 5749
5727 5727 5728 5729 5730 5731 5732 5733 5733 5734 5734 5734 5734 5733 5733 5734 5734 5734 5735 5735 5736 5737 5738 5739 5740 5741 5741 5742 5742 5743 5744 5744 5745 5745 5745 5745 5745 5746 5746 5747 5747 5747 5747 5747 5747 5748 5748 5748 5748 5748 5748 5748 5747 5747 5747 5747 5747 5747 5747 5746 5746 5746 5745
5724 5725 5726 5726 5727 5728 5729 5730 5731 5731 5732 5732 5731 5731 5731 5732 5732 5733 5733 5733 5734 5735 5736 5737 5737 5738 5738 5739 5739 5740 5740 5741 5741 5742 5742 5742 5742 5743 5743 5744 5744 5744 5744 5744 5744 5744 5744 5745 5745 5745 5745 5745 5744 5744 5744 5744 5743 5743 5743 5743 5743 5742 5742
5722 5722 5723 5724 5725 5725 5726 5727 5728 5729 5729 5729 5729 5729 5729 5729 5730 5730 5730 5730 5731 5732 5733 5734 5734 5734 5735 5735 5736 5736 5737 5737 5737 5738 5738 5739 5739 5740 5740 5740 5740 5740 5740 5740 5740 5740 5740 5741 5741 5741 5741 5741 5740 5740 5740 5739 5739 5739 5739 5738 5738 5738 5737
5719 5720 5720 5721 5722 5722 5723 5724 5725 5726 5726 5726 5726 5727 5727 5727 5728 5728 5728 5728 5728 5730 5730 5731 5731 5731 5731 5732 5732 5732 5733 5734 5734 5734 5735 5735 5736 5736 5736 5736 5736 5736 5736 5736 5736 5736 5736 5736 5736 5736 5736 5736 5736 5736 5735 5735 5735 5734 5734 5734 5733 5733 5732
5716 5717 5718 5719 5719 5719 5720 5721 5722 5722 5722 5723 5723 5724 5724 5725 5725 5725 5725 5726 5727 5727 5727 5727 5728 5728 5728 5728 5728 5729 5729 5730 5730 5730 5731 5731 5732 5732 5732 5732 5732 5731 5731 5731 5732 5732 5732 5731 5731 5731 5731 5731 5731 5731 5730 5730 5730 5729 5729 5729 5728 5728 5727
5714 5714 5715 5716 5716 5716 5717 5717 5718 5718 5718 5719 5720 5721 5721 5721 5721 5721 5722 5723 5724 5724 5723 5723 5724 5724 5724 5724 5725 5725 5725 5725 5726 5726 5727 5727 5727 5727 5727 5727 5727 5726 5726 5726 5727 5727 5727 5726 5726 5726 5726 5725 5725 5725 5725 5724 5724 5724 5723 5723 5722 5722 5721
5710 5711 5711 5712 5712 5712 5712 5713 5713 5714 5715 5715 5716 5717 5718 5718 5717 5717 5718 5719 5720 5719 5719 5719 5719 5719 5719 5719 5720 5720 5720 5720 5720 5721 5721 5722 5722 5722 5722 5722 5722 5721 5721 5721 5721 5722 5721 5721 5721 5720 5720 5720 5719 5719 5719 5718 5718 5717 5717 5717 5716 5715 5714
5706 5706 5707 5707 5708 5708 5709 5709 5710 5710 5711 5712 5713 5714 5715 5715 5714 5714 5716 5716 5716 5717 5717 5715 5714 5713 5714 5715 5715 5715 5715 5715 5715 5716 5716 5717 5717 5717 5717 5717 5716 5716 5716 5716 5717 5717 5716 5716 5715 5715 5715 5714 5714 5713 5713 5712 5712 5712 5711 5711 5710 5709 5709
5701 5702 5703 5703 5704 5705 5705 5706 5706 5707 5707 5707 5709 5710 5711 5711 5711 5712 5713 5713 5713 5713 5713 5711 5709 5709 5709 5710 5710 5710 5710 5710 5711 5711 5711 5711 5711 5711 5711 5711 5711 5711 5711 5711 5711 5711 5711 5711 5710 5710 5709 5709 5708 5707 5707 5707 5706 5706 5706 5705 5704 5704 5703
5697 5698 5698 5699 5700 5701 5701 5702 5702 5703 5703 5703 5704 5705 5707 5707 5707 5707 5708 5709 5708 5708 5707 5705 5704 5704 5705 5705 5705 5706 5706 5706 5706 5706 5705 5705 5706 5705 5705 5705 5705 5705 5705 5705 5705 5705 5705 5705 5704 5704 5703 5703 5702 5701 5701 5701 5701 5701 5700 5699 5699 5698 5698
5693 5694 5694 5695 5696 5696 5696 5697 5697 5698 5699 5699 5700 5701 5702 5702 5702 5702 5703 5703 5703 5702 5702 5701 5700 5700 5701 5701 5701 5701 5701 5700 5700 5700 5699 5699 5700 5700 5699 5699 5699 5698 5698 5698 5698 5698 5698 5698 5698 5698 5697 5696 5696 5695 5695 5695 5695 5695 5694 5694 5693 5692 5692
5689 5689 5690 5691 5691 5691 5692 5692 5692 5693 5694 5694 5694 5695 5696 5696 5696 5696 5696 5696 5696 5697 5697 5697 5696 5696 5697 5697 5696 5696 5695 5694 5694 5694 5693 5693 5693 5693 5693 5692 5692 5692 5692 5691 5691 5691 5691 5691 5691 5691 5690 5690 5689 5689 5688 5688 5688 5688 5688 5687 5687 5686 5685
5682 5683 5683 5685 5685 5686 5686 5686 5686 5687 5687 5688 5688 5688 5689 5689 5689 5689 5689 5690 5690 5690 5690 5691 5691 5691 5691 5691 5691 5690 5689 5688 5688 5687 5687 5687 5687 5686 5686 5686 5686 5686 5685 5684 5684 5684 5684 5684 5684 5684 5683 5683 5682 5682 5681 5681 5681 5681 5681 5681 5680 5679 5678
5675 5676 5676 5677 5678 5678 5679 5679 5679 5679 5680 5681 5681 5681 5681 5682 5682 5683 5683 5683 5683 5683 5683 5684 5684 5684 5684 5684 5685 5684 5684 5683 5682 5681 5680 5680 5680 5680 5680 5680 5680 5679 5678 5677 5677 5677 5677 5677 5677 5677 5676 5676 5675 5675 5674 5674 5674 5674 5674 5673 5673 5672 5672